[[{"header":{"parameterUnit":"m.s-1","parameterCategory":1,"la1":30.2991,"la2":30.254,"lo1":-89.0895,"lo2":-89.0444,"dy":0.0017,"dx":0.0017,"nx":28,"ny":28,"refTime":"2024-10-21T09:00:00:Z","depth":0,"parameterNumber":2,"parameterNumberName":"U-component_of_WINDS"},"data":[0,0,0,0,0,0,0,0,0,0,0,0,0,0,0,0,0,0,0,0,0,0,0,0,0,0,0,0,0,0,0,0,0,0,0,0,0,0,0,0,0,0,0,0,0,0,0,0,0,0,0,0,0,0,0,0,0,0,-0.2153,-0.2152,0,-0.2071,-0.207,-0.2069,-0.1986,-0.1985,-0.1984,-0.1983,-0.1898,-0.1897,-0.1896,0,0,0,0,0,0,0,0,0,0,0,0,0,-0.2241,-0.224,-0.2153,-0.2152,-0.2151,-0.2071,-0.207,-0.2068,-0.1986,-0.1985,-0.1984,-0.1983,-0.1899,-0.1897,-0.1896,0,0,0,0,0,0,0,0,0,0,0,0,0,-0.2185,-0.224,-0.2154,-0.2101,-0.2095,-0.2071,-0.207,-0.2068,-0.1987,-0.1985,-0.1983,-0.1982,-0.1899,-0.1898,-0.1896,-0.1917,0,0,-0.189,-0.1889,0,0,0,0,0,0,0,0,-0.2189,-0.2182,-0.2109,-0.2104,-0.2098,-0.2037,-0.2069,-0.2017,-0.1987,-0.2028,-0.1983,-0.1981,-0.1946,-0.194,-0.1928,-0.1913,-0.1909,-0.189,-0.1889,-0.1888,-0.1887,0,0,0,0,0,0,0,-0.2193,-0.2185,-0.2121,-0.2109,-0.2102,-0.2081,-0.2072,-0.2059,-0.1997,-0.2024,-0.2018,-0.2009,-0.1942,-0.193,-0.1926,-0.1908,-0.189,-0.1888,-0.1887,-0.1886,-0.1908,-0.1909,0,0,0,0,0,0,-0.2204,-0.2189,-0.2123,-0.2118,-0.214,-0.2081,-0.207,-0.2058,-0.1997,-0.1986,-0.2011,-0.2006,-0.1934,-0.1928,-0.1922,-0.1944,-0.1888,-0.1886,-0.1885,-0.1906,-0.1908,-0.191,0,0,0,0,0,0,-0.2207,-0.2199,-0.2127,-0.2152,-0.2141,-0.2081,-0.2069,-0.2058,-0.2045,-0.1987,-0.1975,-0.201,-0.1933,-0.1925,-0.1919,-0.194,-0.1885,-0.1884,-0.1904,-0.1907,-0.1909,-0.1988,0,0,0,0,0,0,-0.221,-0.2201,-0.2208,-0.2153,-0.214,-0.2125,-0.207,-0.2057,-0.2042,-0.2035,-0.1983,-0.1973,-0.1931,-0.1922,-0.1917,-0.1937,-0.1882,-0.1902,-0.1905,-0.1908,-0.1983,-0.1993,-0.2001,0,0,0,0,0,-0.2213,-0.2233,-0.2209,-0.2201,-0.2148,-0.2126,-0.2119,-0.207,-0.2044,-0.2051,-0.2014,-0.1974,-0.1939,-0.1923,-0.1916,-0.1935,-0.19,-0.1904,-0.1908,-0.1979,-0.1991,-0.2001,0,0,0,0,0,0,-0.2293,-0.2225,-0.2197,-0.22,-0.217,-0.2112,-0.212,-0.2084,-0.2061,-0.2055,-0.1995,-0.1984,-0.1986,-0.1959,-0.1943,-0.1953,-0.1914,-0.1917,-0.197,-0.1981,-0.199,-0.1997,-0.1881,0,0,0,0,0,-0.2311,-0.2298,-0.224,-0.2248,-0.2235,-0.218,-0.2169,-0.2134,-0.21,-0.2087,-0.2049,-0.2018,-0.1999,-0.1988,-0.1968,-0.1979,-0.1967,-0.1989,-0.1998,-0.2005,-0.2009,-0.2013,-0.2023,-0.1922,-0.1922,-0.1922,0,0,-0.2348,-0.2309,-0.2305,-0.2264,-0.2236,-0.2225,-0.217,-0.216,-0.2152,-0.2085,-0.2078,-0.2049,-0.201,-0.2013,-0.2013,-0.1992,-0.2034,-0.201,-0.2017,-0.2016,-0.2018,-0.2028,-0.2037,-0.1925,-0.1924,-0.1924,0,0,-0.241,-0.2379,-0.2383,-0.2356,-0.2315,-0.2279,-0.228,-0.2228,-0.2207,-0.2199,-0.2149,-0.2138,-0.2107,-0.2082,-0.2065,-0.2119,-0.2082,-0.2113,-0.2161,-0.2166,-0.2174,-0.2181,-0.2201,-0.2209,-0.2117,-0.2117,-0.2117,0,-0.2461,-0.2442,-0.239,-0.2384,-0.2367,-0.2306,-0.2311,-0.2287,-0.2242,-0.2232,-0.2209,-0.217,-0.2139,-0.2136,-0.215,-0.2137,-0.2138,-0.212,-0.2177,-0.2183,-0.2189,-0.2207,-0.2215,-0.2121,-0.2121,-0.212,-0.212,0,-0.2508,-0.2496,-0.2504,-0.2462,-0.2447,-0.2446,-0.2394,-0.2384,-0.2351,-0.2317,-0.231,-0.2271,-0.2243,-0.2239,-0.2207,-0.2232,-0.222,-0.2188,-0.2147,-0.2204,-0.222,-0.2227,-0.2127,-0.2126,-0.2125,-0.2123,0,0,-0.2618,-0.2547,-0.2551,-0.2532,-0.2482,-0.2472,-0.2469,-0.2441,-0.2435,-0.2405,-0.2402,-0.2378,-0.2348,-0.2329,-0.2293,-0.2297,-0.2344,-0.2264,-0.2262,-0.2282,-0.2371,-0.2396,-0.2405,-0.2319,-0.232,-0.2321,-0.2374,0,-0.2673,-0.2663,-0.2616,-0.262,-0.2609,-0.2552,-0.2549,-0.2518,-0.2487,-0.2473,-0.2438,-0.2423,-0.2384,-0.2372,-0.2374,-0.2338,-0.2361,-0.2333,-0.2316,-0.2316,-0.2328,-0.2414,-0.244,-0.2493,-0.238,-0.2381,-0.2382,0,-0.2735,-0.271,-0.2714,-0.2665,-0.2659,-0.2657,-0.2628,-0.2616,-0.258,-0.2557,-0.2537,-0.2496,-0.249,-0.2452,-0.2443,-0.2425,-0.2415,-0.2396,-0.2397,-0.2394,-0.2353,-0.2415,-0.2508,-0.2517,-0.2392,-0.2391,-0.239,0,-0.2817,-0.2784,-0.2782,-0.2767,-0.271,-0.271,-0.2686,-0.2649,-0.2636,-0.2611,-0.2602,-0.2576,-0.2563,-0.2544,-0.2498,-0.2474,-0.2495,-0.2453,-0.2477,-0.2478,-0.2485,-0.2485,-0.258,-0.2477,-0.2476,-0.2476,-0.2476,0,-0.2883,-0.2888,-0.2818,-0.2817,-0.2821,-0.2767,-0.2772,-0.2743,-0.2711,-0.2703,-0.2651,-0.2646,-0.2585,-0.2573,-0.2536,-0.2536,-0.2529,-0.2511,-0.2502,-0.2517,-0.2519,-0.251,-0.2506,-0.2478,-0.2478,-0.2477,-0.2477,0,-0.2975,-0.2928,-0.2923,-0.2869,-0.2856,-0.2862,-0.2816,-0.2813,-0.2779,-0.277,-0.2765,-0.2711,-0.2694,-0.2646,-0.2617,-0.2592,-0.2602,-0.2584,-0.2615,-0.2609,-0.2636,-0.2635,-0.2729,-0.2739,-0.2629,-0.263,-0.2631,0,-0.3021,-0.3024,-0.297,-0.2962,-0.294,-0.2927,-0.2913,-0.286,-0.2848,-0.2809,-0.2811,-0.279,-0.277,-0.2745,-0.2704,-0.2681,-0.2663,-0.2697,-0.2659,-0.2674,-0.2665,-0.2666,-0.2666,-0.2706,-0.2707,-0.2709,-0.271,0,-0.3108,-0.3085,-0.3067,-0.3042,-0.3027,-0.3004,-0.2979,-0.2975,-0.2915,-0.2904,-0.2886,-0.2871,-0.2841,-0.2821,-0.2792,-0.2768,-0.273,-0.2722,-0.2726,-0.2742,-0.2761,-0.2752,-0.2639,-0.272,-0.2719,-0.2718,-0.2718,-0.2717,-0.3179,-0.3179,-0.3142,-0.3124,-0.3099,-0.3077,-0.3072,-0.3037,-0.3021,-0.2993,-0.2962,-0.2948,-0.2913,-0.287,-0.2849,-0.2838,-0.2817,-0.2823,-0.2825,-0.2828,-0.2835,-0.2762,-0.2832,-0.2831,-0.2831,-0.2831,-0.2831,0,-0.3265,-0.3238,-0.3222,-0.3188,-0.3175,-0.3139,-0.3109,-0.31,-0.3088,-0.3059,-0.3041,-0.3021,-0.3001,-0.2959,-0.2935,-0.2934,-0.2916,-0.293,-0.293,-0.2926,-0.2854,-0.2853,-0.2945,-0.2945,-0.2945,-0.2945,-0.2945,-0.2945,-0.3308,-0.3306,-0.3279,-0.3265,-0.3238,-0.3224,-0.321,-0.3189,-0.3166,-0.3146,-0.3129,-0.3101,-0.3067,-0.3041,-0.3022,-0.301,-0.3004,-0.3024,-0.3007,-0.2941,-0.293,-0.292,-0.2919,-0.3023,-0.3023,-0.3079,-0.308,-0.308]},{"header":{"parameterUnit":"m.s-1","parameterCategory":1,"la1":30.2991,"la2":30.254,"lo1":-89.0895,"lo2":-89.0444,"dy":0.0017,"dx":0.0017,"nx":28,"ny":28,"refTime":"2024-10-21T09:00:00:Z","depth":0,"parameterNumber":3,"parameterNumberName":"V-component_of_WINDS"},"data":[0,0,0,0,0,0,0,0,0,0,0,0,0,0,0,0,0,0,0,0,0,0,0,0,0,0,0,0,0,0,0,0,0,0,0,0,0,0,0,0,0,0,0,0,0,0,0,0,0,0,0,0,0,0,0,0,0,0,0.9991,0.999,0,0.9986,0.9986,0.9986,1.0031,1.0033,1.0034,1.0035,1.0024,1.0023,1.0021,0,0,0,0,0,0,0,0,0,0,0,0,0,1.0034,1.0033,0.9991,0.999,0.999,0.9986,0.9986,0.9986,1.0031,1.0033,1.0034,1.0036,1.0025,1.0023,1.0021,0,0,0,0,0,0,0,0,0,0,0,0,0,1.002,1.0032,0.9991,1.0013,1.0015,0.9986,0.9986,0.9986,1.0031,1.0033,1.0035,1.0036,1.0025,1.0023,1.0021,0.9969,0,0,1.0014,1.0013,0,0,0,0,0,0,0,0,1.0021,1.0019,1.0009,1.0011,1.0013,1.0011,0.9997,0.998,1.003,1.0024,1.0035,1.0037,1.0018,1.0016,1.0011,0.9968,0.9968,1.0014,1.0012,1.0011,1.0011,0,0,0,0,0,0,0,1.0022,1.0019,0.9989,1.0009,1.0012,1.0021,1.0021,0.9994,1.001,1.0025,1.0028,1.0028,1.0019,1.0013,1.0011,0.9968,1.0014,1.0012,1.001,1.001,0.9882,0.988,0,0,0,0,0,0,1.0021,1.002,0.9989,0.9988,1.0022,1.0019,1.0019,1.001,1.0011,1.0013,1.0026,1.003,1.0016,1.0014,1.0011,0.995,1.0011,1.0009,1.0008,0.9884,0.9881,0.9879,0,0,0,0,0,0,1.0021,1.0017,0.9989,1.0005,1.0002,1.0016,1.0005,1.0009,1.0003,1.0012,1.0014,1.0017,1.0017,1.0014,0.9979,0.995,1.0008,1.0006,0.9886,0.9883,0.988,0.9827,0,0,0,0,0,0,1.0022,1.0017,0.9999,1.0004,1.0001,0.9959,1.0004,1.0007,1.0,1.0004,1.0004,1.0005,1.0019,0.9982,0.9977,0.9948,1.0005,0.9889,0.9885,0.9881,0.9831,0.9823,0.9815,0,0,0,0,0,1.0024,0.9983,0.9998,0.9994,0.9978,0.9957,0.9955,0.9973,0.9997,0.9978,0.9984,1.0005,0.9955,0.9979,0.9973,0.9943,0.9891,0.9886,0.9882,0.9835,0.9824,0.9815,0,0,0,0,0,0,0.9971,0.9984,1.0,0.996,0.9957,0.9965,0.9941,0.9961,0.9949,0.9954,0.9975,0.9974,0.9936,0.9936,0.9962,0.9893,0.9927,0.9921,0.9893,0.9883,0.9875,0.9875,1.0003,0,0,0,0,0,0.9955,0.9938,0.995,0.9913,0.9911,0.9926,0.9917,0.9932,0.9929,0.9927,0.993,0.9925,0.9908,0.9896,0.9881,0.9833,0.9832,0.9809,0.9801,0.9794,0.9788,0.9762,0.9752,0.9864,0.9864,0.9864,0,0,0.9921,0.9926,0.9913,0.9902,0.9902,0.9882,0.9924,0.9902,0.9887,0.9923,0.9891,0.9893,0.9888,0.9847,0.9829,0.9846,0.9757,0.9788,0.9783,0.978,0.9756,0.9746,0.9736,0.9861,0.9861,0.9862,0,0,0.9848,0.9851,0.9821,0.982,0.982,0.9831,0.9824,0.9828,0.9832,0.9801,0.9827,0.9809,0.9779,0.9775,0.9769,0.9697,0.9717,0.9692,0.9647,0.9622,0.9613,0.9606,0.9579,0.9569,0.9686,0.9686,0.9686,0,0.9805,0.9779,0.9802,0.9779,0.9773,0.9807,0.9776,0.9773,0.9767,0.9761,0.9781,0.9746,0.9745,0.9703,0.9685,0.968,0.9671,0.9691,0.9613,0.9606,0.9599,0.9573,0.9563,0.9683,0.9683,0.9683,0.9684,0,0.9726,0.9707,0.9682,0.9678,0.9669,0.9642,0.966,0.9648,0.9663,0.9671,0.9639,0.964,0.9625,0.9617,0.9631,0.9577,0.9587,0.961,0.9644,0.9584,0.9561,0.9552,0.9678,0.9679,0.968,0.9681,0,0,0.9617,0.9628,0.9619,0.9617,0.9621,0.9605,0.9579,0.9568,0.9557,0.9552,0.9529,0.9504,0.9526,0.9519,0.9533,0.9511,0.9453,0.9537,0.9537,0.952,0.9392,0.9374,0.9363,0.9467,0.9466,0.9464,0.9392,0,0.9546,0.9504,0.9525,0.9479,0.9462,0.9495,0.9472,0.9471,0.9478,0.9463,0.9471,0.9452,0.9483,0.9479,0.9459,0.9464,0.9428,0.947,0.9444,0.9443,0.9443,0.9351,0.9331,0.9263,0.9383,0.9382,0.9381,0,0.9457,0.9451,0.9404,0.9411,0.9405,0.9384,0.9375,0.9361,0.936,0.9367,0.936,0.938,0.9353,0.9389,0.9352,0.9381,0.9372,0.9373,0.9371,0.9367,0.9407,0.9343,0.9242,0.9231,0.9367,0.9368,0.9369,0,0.9382,0.9361,0.9331,0.9329,0.9337,0.9321,0.9323,0.9325,0.9317,0.9308,0.9303,0.9291,0.9284,0.9274,0.9289,0.9314,0.9249,0.9287,0.9253,0.9252,0.9235,0.9236,0.913,0.9232,0.9233,0.9233,0.9233,0,0.9299,0.9268,0.9297,0.9278,0.9245,0.9269,0.9235,0.9241,0.9242,0.9223,0.9251,0.9233,0.9255,0.9238,0.925,0.9217,0.9214,0.9217,0.922,0.9214,0.9213,0.9207,0.9211,0.923,0.9231,0.9231,0.9232,0,0.9208,0.9226,0.9195,0.9206,0.9208,0.9183,0.9191,0.9173,0.9184,0.916,0.9156,0.9171,0.9153,0.9168,0.915,0.9158,0.9114,0.9124,0.9114,0.9117,0.9081,0.9084,0.8965,0.8951,0.9064,0.9063,0.9062,0,0.9153,0.9131,0.914,0.9131,0.9132,0.9117,0.9109,0.9133,0.9123,0.9121,0.9103,0.9088,0.9077,0.9047,0.9055,0.9041,0.9051,0.9011,0.9049,0.9043,0.9048,0.9049,0.9046,0.9002,0.9,0.8999,0.8998,0,0.9053,0.9064,0.9053,0.9046,0.9037,0.9032,0.9028,0.9019,0.9043,0.9031,0.9014,0.9006,0.8989,0.8973,0.8962,0.8963,0.8983,0.8987,0.8978,0.897,0.8965,0.8966,0.9092,0.8989,0.899,0.8991,0.8991,0.8991,0.8978,0.896,0.8964,0.8951,0.8952,0.8948,0.8932,0.8942,0.8929,0.8918,0.8933,0.8912,0.8911,0.89,0.8898,0.8881,0.8897,0.8885,0.8881,0.8877,0.8872,0.8969,0.8879,0.888,0.888,0.888,0.888,0,0.8878,0.8884,0.8872,0.8867,0.8857,0.8881,0.8879,0.8868,0.885,0.885,0.8839,0.882,0.8805,0.8813,0.88,0.8785,0.8794,0.878,0.878,0.878,0.8858,0.8867,0.8773,0.8773,0.8773,0.8773,0.8773,0.8773,0.8825,0.8796,0.8807,0.8778,0.8783,0.8765,0.8761,0.8758,0.8758,0.8735,0.8724,0.8731,0.8733,0.8721,0.8708,0.8711,0.8704,0.8686,0.8692,0.8764,0.8775,0.8785,0.8793,0.8685,0.8685,0.8615,0.8614,0.8614]}]]